Location: ???????
(55.4362°N, 38.1183°E)
Time: 09:50:50
(UTC+00:00)

Cosmos 1932 - Pass Details

Date: 24 October 2021
Orbit: 943 x 987 km, 65.0° (Epoch: 28 November)

Event Time Altitude Azimuth Distance (km) Brightness Sun altitude
Rises 15:52:03 0° 313° (NW) 3,619 8.3 -15.6°
Reaches altitude 10° 15:54:36 10° 311° (NW) 2,673 7.5 -15.9°
Maximum altitude 16:00:48 74° 229° (SW) 991 4.6 -16.8°
Enters shadow 16:06:48 11° 146° (SE) 2,595 6.4 -17.7°
